Denver, CO

11:03 PM MST on December 12, 2019 (GMT -0700)
Front Range

Weather History for KFTG - November, 2019

Change the Weather History Date:

Saturday, November 16, 2019

  Actual Average (KBKF) Record (KBKF)
Temperature  
Mean Temperature 49 °F -  
Max Temperature 62 °F 50 °F 75 °F (2016)
Min Temperature 35 °F 26 °F -3 °F (2014)
Degree Days  
Heating Degree Days 16    
Moisture  
Dew Point 27 °F    
Average Humidity 52    
Maximum Humidity 85    
Minimum Humidity 20    
Precipitation  
Precipitation 0.00 in - - ()
Sea Level Pressure  
Sea Level Pressure 30.13 in    
Wind  
Wind Speed 8 mph (WSW)    
Max Wind Speed 22 mph    
Max Gust Speed 30 mph    
Visibility 10 miles    
Events      
Averages and records for this station are not official NWS values.
T = Trace of Precipitation, MM = Missing Value Source: NWS Daily Summary

Daily Weather History Graph

Daily Weather History Graph

Search for Another Location

Airport or City:

Astronomy

Nov. 16, 2019 Rise Set
Actual Time 6:43 AM MST 4:41 PM MST
Civil Twilight 6:14 AM MST 5:10 PM MST
Nautical Twilight 5:42 AM MST 5:43 PM MST
Astronomical Twilight 5:10 AM MST 6:15 PM MST
Moon 8:17 PM MST (11/16) 10:39 AM MST (11/16)
Length of Visible Light 10h 55m
Length of Day
9h 57m
Waning Gibbous, 82% of the Moon is Illuminated
Nov 16
Waning Gibbous
Nov 19
Last Quarter
Nov 26
New
Dec 3
First Quarter
Dec 11
Full

Hourly Weather History & Observations

Time (MST) Temp. Windchill Dew Point Humidity Pressure Visibility Wind Dir Wind Speed Gust Speed Precip Events Conditions
12:12 AM 45.5 °F 40.3 °F 27.1 °F 49% 30.07 in 10.0 mi SW 10.4 mph - N/A   Clear
12:30 AM 43.7 °F 38.6 °F 26.1 °F 50% 30.06 in 10.0 mi WSW 9.2 mph - N/A   Clear
12:54 AM 46.9 °F - 24.4 °F 41% 30.06 in 10.0 mi SW 9.2 mph - N/A   Clear
1:12 AM 47.1 °F - 24.3 °F 41% 30.06 in 10.0 mi SW 10.4 mph - N/A   Clear
1:30 AM 48.9 °F - 23.0 °F 36% 30.06 in 10.0 mi SW 11.5 mph - N/A   Clear
1:54 AM 50.4 °F - 22.3 °F 33% 30.06 in 10.0 mi SW 10.4 mph - N/A   Clear
2:12 AM 49.5 °F - 22.8 °F 35% 30.06 in 10.0 mi WSW 10.4 mph - N/A   Clear
2:30 AM 48.7 °F - 22.1 °F 35% 30.06 in 10.0 mi SW 8.1 mph - N/A   Clear
2:54 AM 50.9 °F - 21.6 °F 32% 30.05 in 10.0 mi WSW 8.1 mph - N/A   Clear
3:12 AM 50.4 °F - 21.9 °F 33% 30.04 in 10.0 mi SW 5.8 mph - N/A   Clear
3:30 AM 45.5 °F 41.8 °F 23.9 °F 43% 30.04 in 10.0 mi SW 6.9 mph - N/A   Clear
3:54 AM 47.1 °F - 23.7 °F 40% 30.04 in 10.0 mi WSW 8.1 mph - N/A   Clear
4:12 AM 48.7 °F - 22.6 °F 36% 30.04 in 10.0 mi WSW 8.1 mph - N/A   Clear
4:30 AM 48.2 °F - 23.0 °F 37% 30.05 in 10.0 mi WSW 6.9 mph - N/A   Clear
4:54 AM 47.3 °F - 23.4 °F 39% 30.05 in 10.0 mi SW 9.2 mph - N/A   Clear
5:12 AM 48.7 °F - 22.1 °F 35% 30.04 in 10.0 mi SW 6.9 mph - N/A   Clear
5:30 AM 50.0 °F - 21.9 °F 33% 30.04 in 10.0 mi SW 10.4 mph - N/A   Clear
5:48 AM 50.4 °F - 21.7 °F 33% 30.04 in 10.0 mi SW 10.4 mph - N/A   Clear
6:50 AM 50.0 °F - 21.2 °F 32% 30.05 in 10.0 mi SW 5.8 mph - N/A   Mostly Cloudy
7:58 AM 44.6 °F 43.1 °F 26.6 °F 49% 30.06 in 10.0 mi SSW 3.5 mph - N/A   Mostly Cloudy
8:58 AM 48.2 °F - 24.8 °F 40% 30.08 in 10.0 mi SSW 3.5 mph - N/A   Mostly Cloudy
9:58 AM 57.2 °F - 23.0 °F 27% 30.08 in 10.0 mi Calm Calm - N/A   Mostly Cloudy
10:58 AM 59.0 °F - 23.0 °F 25% 30.07 in 10.0 mi ENE 5.8 mph - N/A   Mostly Cloudy
11:58 AM 60.8 °F - 23.0 °F 23% 30.05 in 10.0 mi NE 8.1 mph - N/A   Mostly Cloudy
12:50 PM 62.6 °F - 21.2 °F 20% 30.02 in 10.0 mi Calm Calm - N/A   Mostly Cloudy
1:58 PM 60.8 °F - 23.0 °F 23% 30.00 in 10.0 mi NNE 6.9 mph - N/A   Mostly Cloudy
2:54 PM 60.8 °F - 24.8 °F 25% 30.02 in 10.0 mi NNE 8.1 mph - N/A   Mostly Cloudy
3:50 PM 57.2 °F - 28.4 °F 33% 30.05 in 10.0 mi North 16.1 mph 24.2 mph N/A   Overcast
5:55 PM 39.2 °F 29.0 °F 32.0 °F 75% 30.21 in 10.0 mi NNE 21.9 mph 29.9 mph N/A   Overcast
6:57 PM 39.2 °F 31.6 °F 32.0 °F 75% 30.26 in 10.0 mi NNE 12.7 mph - N/A   Overcast
7:47 PM 37.4 °F 32.8 °F 32.0 °F 81% 30.27 in 10.0 mi NE 5.8 mph - N/A   Overcast
8:12 PM 37.6 °F 33.1 °F 33.1 °F 84% 30.27 in 10.0 mi NNE 5.8 mph - N/A   Overcast
8:30 PM 37.9 °F - 32.9 °F 82% 30.28 in 10.0 mi Calm Calm - N/A   Overcast
8:47 PM 37.4 °F - 32.0 °F 81% 30.29 in 10.0 mi Calm Calm - N/A   Overcast
8:48 PM 37.8 °F - 32.9 °F 83% 30.29 in 10.0 mi Calm Calm - N/A   Overcast
9:12 PM 37.8 °F 35.3 °F 32.4 °F 81% 30.29 in 10.0 mi North 3.5 mph - N/A   Overcast
9:30 PM 37.4 °F - 32.0 °F 81% 30.29 in 10.0 mi Calm Calm - N/A   Overcast
9:48 PM 37.4 °F - 32.0 °F 81% 30.28 in 10.0 mi Calm Calm - N/A   Overcast
10:12 PM 37.6 °F - 32.0 °F 80% 30.27 in 10.0 mi Calm Calm - N/A   Overcast
10:30 PM 37.4 °F 34.9 °F 32.0 °F 81% 30.28 in 10.0 mi WSW 3.5 mph - N/A   Overcast
10:48 PM 37.4 °F 33.8 °F 32.0 °F 81% 30.27 in 10.0 mi SW 4.6 mph - N/A   Overcast
11:12 PM 36.5 °F 31.8 °F 32.0 °F 84% 30.27 in 10.0 mi SW 5.8 mph - N/A   Overcast
11:30 PM 36.1 °F 30.6 °F 32.0 °F 85% 30.27 in 10.0 mi SW 6.9 mph - N/A   Overcast
11:48 PM 35.1 °F 28.6 °F 31.1 °F 85% 30.26 in 10.0 mi SW 8.1 mph - N/A   Scattered Clouds